Location: Newark
(35.2161°N, 26.1013°E)
Time: 08:54:34
(UTC+00:00)

nSIGHT-1 - Visible Passes

Search period start: 26 January 2020 00:00
Search period end: 05 February 2020 00:00
Orbit: 313 x 315 km, 51.6° (Epoch: 26 January)

Date Brightness Start Highest point End Pass type
(mag) Time Alt. Az. Time Alt. Az. Time Alt. Az.
26 Jan ? 16:01:19 10° NW 16:03:59 64° SW 16:06:39 10° SE visible
27 Jan ? 16:15:15 10° W 16:17:16 19° SW 16:19:16 10° S visible
04 Feb ? 03:46:39 10° SSE 03:47:35 11° SE 03:48:30 10° ESE visible
